PBO Station Position Time Series. Reference Frame : NAM14
Format Version,1.1.0
4-character ID,P644
Station name,WheelrRidgCS2007
Begin Date, 2007-07-19
End Date, 2019-10-07
Release Date, 2019-10-08
Reference position, 37.4953922175 North Latitude, -118.6844032683 East Longitude, 3458.62646 meters elevation,
Date, North (mm), East (mm), Vertical (mm), North Std. Deviation (mm), East Std. Deviation (mm),              Vertical Std. Deviation (mm), Quality,
2007-07-19,0.00, 0.00, 0.00, 1.96, 1.59, 7.10, repro,
2007-07-20,0.71, 0.83, -2.92, 1.99, 1.66, 7.29, repro,
2007-07-21,0.14, 1.45, -2.09, 2.01, 1.66, 7.34, repro,
2007-07-22,0.03, 1.22, -9.90, 2.04, 1.65, 7.38, repro,
2007-07-23,0.61, 0.37, -5.35, 2.01, 1.65, 7.34, repro,
2007-07-24,-0.34, 0.05, -3.43, 2.05, 1.71, 7.58, repro,
2007-07-25,0.50, 0.01, -4.18, 2.00, 1.67, 7.32, repro,
2007-07-26,-0.56, -0.41, -5.17, 2.01, 1.68, 7.39, repro,
2007-07-27,-0.39, 1.42, -5.07, 2.08, 1.68, 7.59, repro,
2007-07-28,0.59, 1.16, -3.45, 2.00, 1.67, 7.36, repro,
2007-07-29,-0.35, 0.89, -3.04, 2.01, 1.67, 7.38, repro,
2007-07-30,0.35, -0.31, 0.38, 1.97, 1.61, 7.20, repro,
2007-07-31,-0.72, -0.27, -7.24, 1.95, 1.60, 7.14, repro,
2007-08-01,-0.20, 1.16, -0.46, 1.98, 1.64, 7.31, repro,
2007-08-02,0.60, -0.07, -5.35, 2.08, 1.79, 7.75, repro,
2007-08-03,0.08, 0.27, -5.02, 1.97, 1.59, 7.12, repro,
2007-08-04,2.11, -1.03, -3.76, 1.95, 1.59, 7.08, repro,
2007-08-05,0.76, 1.33, 1.41, 2.00, 1.61, 7.26, repro,
2007-08-06,2.18, 2.80, 5.06, 1.98, 1.64, 7.29, repro,
2007-08-07,1.70, 0.93, -1.98, 1.99, 1.63, 7.27, repro,
2007-08-08,0.02, -0.30, -2.90, 1.96, 1.60, 7.13, repro,
2007-08-09,0.82, 1.72, 1.48, 1.95, 1.59, 7.08, repro,
2007-08-10,1.18, 1.17, 6.14, 1.95, 1.59, 7.07, repro,
2007-08-11,0.62, 0.15, -2.65, 1.95, 1.59, 7.08, repro,
2007-08-12,0.66, 1.28, 1.19, 1.94, 1.58, 6.99, repro,
2007-08-13,1.27, -1.43, -4.78, 1.96, 1.59, 7.11, repro,
2007-08-14,1.06, 1.47, -1.53, 2.09, 1.72, 7.61, repro,
2007-08-15,-0.40, 2.08, -3.48, 2.07, 1.70, 7.50, repro,
2007-08-16,0.09, -0.29, 0.72, 2.03, 1.64, 7.38, repro,
2007-08-17,0.60, -1.43, -2.53, 2.04, 1.63, 7.35, repro,
2007-08-18,0.91, -0.13, -2.09, 2.06, 1.68, 7.62, repro,
2007-08-19,0.57, 0.99, 0.97, 2.07, 1.70, 7.74, repro,
2007-08-20,0.76, 0.73, -4.82, 2.04, 1.66, 7.44, repro,
2007-08-21,0.34, 1.28, -2.59, 2.08, 1.65, 7.51, repro,
2007-08-22,0.11, 2.29, -4.21, 2.04, 1.64, 7.38, repro,
2007-08-23,0.12, 0.97, 5.74, 2.00, 1.59, 7.20, repro,
2007-08-24,-0.04, 1.11, 0.19, 2.11, 1.68, 7.58, repro,
2007-08-25,1.13, -0.22, -7.09, 2.05, 1.68, 7.47, repro,
2007-08-26,0.22, 0.33, 1.52, 2.12, 1.78, 7.77, repro,
2007-08-27,0.90, 1.61, -3.31, 2.09, 1.72, 7.66, repro,
2007-08-28,-0.40, 1.01, -6.86, 2.05, 1.68, 7.47, repro,
2007-08-29,0.96, 0.46, -13.84, 2.06, 1.68, 7.49, repro,
2007-08-30,0.39, 0.52, -10.06, 2.06, 1.68, 7.48, repro,
2007-08-31,0.31, 3.09, 8.39, 2.06, 1.69, 7.50, repro,
2007-09-01,0.07, -0.37, 7.20, 2.07, 1.68, 7.49, repro,
2007-09-02,0.00, -2.77, -1.29, 2.06, 1.68, 7.47, repro,
2007-09-03,2.06, -2.05, 3.05, 2.05, 1.67, 7.47, repro,
2007-09-04,1.70, 3.27, 3.57, 2.03, 1.68, 7.44, repro,
2007-09-05,1.11, 0.64, 4.64, 2.05, 1.68, 7.41, repro,
2007-09-06,0.41, 1.07, -3.08, 2.05, 1.68, 7.44, repro,
2007-09-07,-0.14, 0.02, -1.68, 2.06, 1.70, 7.52, repro,
2007-09-08,0.87, -0.30, -3.54, 2.20, 1.83, 8.15, repro,
2007-09-09,-1.72, -0.16, -0.91, 2.12, 1.76, 7.81, repro,
2007-09-10,1.07, -0.52, -2.38, 2.08, 1.72, 7.62, repro,
2007-09-11,0.58, -0.72, -5.10, 2.07, 1.69, 7.47, repro,
2007-09-12,0.08, 0.45, -1.20, 2.11, 1.71, 7.60, repro,
2007-09-13,-0.10, -1.14, 2.13, 2.17, 1.70, 7.75, repro,
2007-09-14,-0.84, -0.59, -2.40, 2.12, 1.71, 7.66, repro,
2007-09-15,-0.71, -0.50, 3.92, 2.23, 1.69, 7.94, repro,
2007-09-16,0.98, -1.15, -0.80, 2.14, 1.68, 7.62, repro,
2007-09-17,0.51, -1.49, 3.61, 2.13, 1.76, 7.83, repro,
2007-09-18,0.58, -0.05, -2.66, 2.06, 1.68, 7.47, repro,
2007-09-19,-0.84, -2.24, 2.55, 1.99, 1.59, 7.16, repro,
2007-09-20,0.11, -0.98, 3.52, 1.98, 1.60, 7.18, repro,
2007-09-21,-1.54, -0.27, 3.48, 2.07, 1.67, 7.53, repro,
2007-09-22,-0.36, 0.07, 4.21, 2.02, 1.61, 7.28, repro,
2007-09-23,-0.76, 0.56, -1.91, 2.09, 1.71, 7.59, repro,
2007-09-24,-0.57, -0.15, -3.07, 2.11, 1.67, 7.58, repro,
2007-09-25,-1.42, -0.35, -5.13, 2.07, 1.65, 7.49, repro,
2007-09-26,-0.38, -0.45, 2.61, 2.01, 1.62, 7.29, repro,
2007-09-27,-0.27, -1.00, 3.33, 2.04, 1.64, 7.42, repro,
2007-09-28,-1.22, 0.09, 2.03, 2.05, 1.74, 7.52, repro,
2007-09-29,-1.22, -0.62, -0.92, 2.04, 1.70, 7.51, repro,
2007-09-30,-0.43, 0.27, 3.74, 2.06, 1.71, 7.61, repro,
2007-10-01,-0.37, -3.27, 3.84, 2.05, 1.70, 7.59, repro,
2007-10-02,-0.24, -0.58, 3.63, 2.09, 1.75, 7.81, repro,
2007-10-03,0.28, 0.39, 5.97, 2.11, 1.74, 7.73, repro,
2007-10-04,-0.57, -4.00, 8.81, 2.09, 1.68, 7.57, repro,
2007-10-05,-0.47, -1.06, 1.34, 2.08, 1.75, 7.82, repro,
2007-10-06,-0.61, 0.05, 3.67, 2.10, 1.71, 7.68, repro,
2007-10-07,-0.77, -0.34, -2.18, 2.09, 1.72, 7.68, repro,
2007-10-08,-0.52, -0.43, -1.10, 2.25, 1.79, 8.34, repro,
2007-10-09,-1.63, -0.04, 0.04, 2.18, 1.85, 8.11, repro,
2007-10-10,-0.74, -1.47, -8.52, 2.18, 1.74, 7.99, repro,
2007-10-11,-1.05, 0.71, 1.84, 2.05, 1.70, 7.63, repro,
2007-10-12,-1.15, 0.37, 2.64, 2.09, 1.75, 7.80, repro,
2007-10-13,-0.57, -1.04, 1.14, 1.98, 1.64, 7.31, repro,
2007-10-14,-0.29, -0.83, 0.95, 2.03, 1.69, 7.49, repro,
2007-10-15,-1.37, -0.91, 4.64, 1.98, 1.64, 7.32, repro,
2007-10-16,-1.79, 0.47, 9.66, 2.00, 1.65, 7.38, repro,
2007-10-17,-1.53, 1.46, 10.26, 2.03, 1.68, 7.49, repro,
2007-10-18,-0.41, 0.40, 4.28, 1.98, 1.64, 7.32, repro,
2007-10-19,-1.28, 0.35, 5.14, 1.98, 1.64, 7.32, repro,
2007-10-20,-2.21, -2.20, 2.94, 2.01, 1.67, 7.42, repro,
2007-10-21,-0.82, -0.32, 1.36, 1.99, 1.64, 7.33, repro,
2007-10-22,-1.30, -0.84, -4.01, 2.04, 1.68, 7.51, repro,
2007-10-23,-0.46, 0.22, -6.01, 2.03, 1.70, 7.48, repro,
2007-10-24,-1.03, 0.25, -3.49, 2.06, 1.74, 7.66, repro,
2007-10-25,-1.72, 0.32, -5.90, 2.02, 1.68, 7.47, repro,
2007-10-26,-1.60, 0.71, -3.46, 2.02, 1.69, 7.46, repro,
2007-10-27,-0.69, -1.24, -5.40, 2.00, 1.64, 7.34, repro,
2007-10-28,0.31, -0.39, -6.87, 1.99, 1.64, 7.33, repro,
2007-10-29,-1.85, 0.54, -4.09, 1.99, 1.63, 7.31, repro,
2007-10-30,-1.17, -1.10, -3.76, 1.99, 1.64, 7.35, repro,
2007-10-31,-1.19, -0.20, -4.00, 2.00, 1.65, 7.37, repro,
2007-11-01,-1.55, -0.58, -4.97, 1.97, 1.61, 7.18, repro,
2007-11-02,-0.82, -0.35, -4.08, 1.96, 1.61, 7.11, repro,
2007-11-03,-1.33, 0.11, -5.52, 1.95, 1.61, 7.14, repro,
2007-11-04,-1.30, -0.19, -4.27, 1.97, 1.60, 7.14, repro,
2007-11-05,-1.34, -0.37, -7.18, 1.96, 1.61, 7.16, repro,
2007-11-06,-1.50, -0.74, -9.44, 2.08, 1.78, 7.70, repro,
2007-11-07,-0.89, -0.71, -5.34, 1.96, 1.60, 7.10, repro,
2007-11-08,-0.98, -0.75, -3.73, 1.98, 1.64, 7.24, repro,
2007-11-09,-1.53, -0.44, -4.16, 1.99, 1.64, 7.31, repro,
2007-11-10,-1.90, -2.00, -5.42, 1.97, 1.62, 7.18, repro,
2007-11-11,-0.76, -2.90, -9.95, 1.96, 1.60, 7.13, repro,
2007-11-12,-1.04, -1.38, -4.62, 1.98, 1.60, 7.12, repro,
2007-11-13,-0.90, -0.57, -6.36, 1.94, 1.60, 7.10, repro,
2007-11-14,-0.72, -0.67, -8.88, 1.98, 1.63, 7.25, repro,
2007-11-15,-0.54, -1.02, -6.03, 1.99, 1.63, 7.26, repro,
2007-11-16,-0.88, -1.71, -3.55, 1.99, 1.62, 7.25, repro,
2007-11-17,-0.71, -0.73, -9.86, 1.95, 1.59, 7.09, repro,
2007-11-18,-0.19, -1.47, -4.58, 2.00, 1.63, 7.27, repro,
2007-11-19,-1.77, -2.47, -6.43, 1.95, 1.61, 7.17, repro,
2007-11-20,-0.84, -2.80, -6.06, 2.04, 1.72, 7.45, repro,
2007-11-21,-0.19, -0.98, -2.39, 2.07, 1.74, 7.58, repro,
2007-11-22,-0.27, -1.87, -11.80, 2.01, 1.67, 7.28, repro,
2007-11-23,0.47, -1.19, -6.32, 2.05, 1.76, 7.47, repro,
2007-11-24,-0.40, -1.35, -3.34, 2.04, 1.73, 7.47, repro,
2007-11-25,-0.14, -1.33, -5.31, 2.07, 1.77, 7.50, repro,
2007-11-26,-0.72, -1.13, -8.56, 2.18, 1.85, 8.08, repro,
2007-11-27,0.10, -0.53, -6.28, 2.10, 1.75, 7.68, repro,
2007-11-28,-0.65, -1.01, -10.58, 2.04, 1.71, 7.35, repro,
2007-11-29,-0.43, -2.54, -10.91, 2.04, 1.67, 7.46, repro,
2007-11-30,-1.78, -5.35, -8.52, 2.15, 1.78, 7.76, repro,
2007-12-01,-0.64, -1.30, 2.46, 2.13, 1.81, 7.83, repro,
2007-12-02,-2.26, -4.11, -7.27, 2.24, 1.90, 8.32, repro,
2007-12-03,-3.58, 0.08, -14.82, 2.24, 1.89, 8.46, repro,
2007-12-04,1.68, 0.97, -13.96, 2.22, 1.94, 8.33, repro,
2007-12-05,0.91, -2.20, -5.32, 2.31, 2.07, 8.76, repro,
2007-12-06,-1.52, -2.68, -10.57, 2.37, 2.07, 8.81, repro,
2007-12-07,-1.55, -2.08, -6.66, 2.27, 1.96, 8.37, repro,
2007-12-08,-0.30, -1.22, -5.70, 2.20, 1.87, 8.14, repro,
2007-12-09,-1.06, -1.06, -10.57, 2.41, 2.25, 9.14, repro,
2007-12-10,-0.15, -1.42, -7.48, 2.16, 1.84, 7.99, repro,
2007-12-11,0.58, -1.46, -8.69, 2.18, 1.86, 8.06, repro,
2007-12-12,1.33, -2.28, -17.05, 2.19, 1.78, 7.97, repro,
2007-12-13,0.15, -2.00, -11.90, 2.13, 1.75, 7.71, repro,
2007-12-14,-0.44, -1.50, -6.05, 2.03, 1.65, 7.47, repro,
2007-12-15,0.09, -0.87, -3.59, 2.02, 1.64, 7.37, repro,
2007-12-16,0.19, -0.53, -5.18, 2.02, 1.64, 7.41, repro,
2007-12-17,-0.01, -2.39, -5.08, 2.08, 1.69, 7.49, repro,
2007-12-18,0.56, -1.83, -1.85, 2.04, 1.67, 7.41, repro,
2007-12-19,-0.28, -2.54, -3.68, 2.12, 1.71, 7.73, repro,
2007-12-20,-2.14, -3.98, -6.02, 2.04, 1.67, 7.45, repro,
2007-12-21,-0.09, -1.80, -9.05, 2.09, 1.71, 7.56, repro,
2007-12-22,0.09, -2.20, -11.29, 2.13, 1.74, 7.82, repro,
2007-12-23,-1.63, -1.58, -9.51, 2.09, 1.72, 7.58, repro,
2007-12-24,-1.26, -3.21, -7.59, 2.06, 1.70, 7.55, repro,
2007-12-25,-0.18, -1.51, -7.73, 2.08, 1.73, 7.56, repro,
2007-12-26,-1.74, -2.01, -6.31, 2.03, 1.65, 7.37, repro,
2007-12-27,-0.42, -1.56, -4.17, 2.10, 1.72, 7.57, repro,
2007-12-28,-0.64, -1.72, -6.29, 2.09, 1.69, 7.59, repro,
2007-12-29,-0.94, -1.72, -5.73, 2.05, 1.65, 7.46, repro,
2007-12-30,0.08, -1.83, -5.20, 2.09, 1.70, 7.63, repro,
2007-12-31,-0.79, -0.81, -12.05, 2.02, 1.62, 7.28, repro,
2008-01-01,-0.71, -1.92, -13.34, 2.00, 1.61, 7.25, repro,
2008-01-02,-0.91, -1.05, -9.80, 2.00, 1.61, 7.24, repro,
2008-01-03,1.08, -2.45, -8.01, 2.05, 1.63, 7.39, repro,
2008-01-04,-2.01, -3.71, -6.68, 2.00, 1.58, 7.24, repro,
2008-01-05,-3.24, -4.56, -7.53, 2.00, 1.58, 7.24, repro,
2008-01-06,-1.67, -4.21, -8.04, 1.98, 1.58, 7.12, repro,
2008-01-07,-1.03, -2.52, -3.56, 1.99, 1.60, 7.27, repro,
2008-01-08,-2.31, -3.39, -8.62, 2.05, 1.60, 7.43, repro,
2008-01-09,-1.52, -2.83, -10.05, 2.04, 1.60, 7.41, repro,
2008-01-10,-0.95, -2.12, -6.65, 1.99, 1.59, 7.28, repro,
2008-01-11,-0.27, -2.17, -11.33, 1.97, 1.58, 7.17, repro,
2008-01-12,-0.53, -1.52, -10.70, 1.98, 1.60, 7.21, repro,
2008-01-13,-2.19, -2.55, -15.04, 1.98, 1.61, 7.21, repro,
2008-01-14,-1.14, -2.10, -11.67, 1.99, 1.60, 7.22, repro,
2008-01-15,-0.33, -2.68, -10.61, 1.98, 1.60, 7.24, repro,
2008-01-16,-0.46, -2.57, -11.75, 2.02, 1.62, 7.36, repro,
2008-01-17,-1.64, -2.45, -10.71, 2.01, 1.61, 7.30, repro,
2008-01-18,-1.85, -2.94, -7.81, 1.98, 1.64, 7.30, repro,
2008-01-19,-1.51, -1.97, -16.65, 1.97, 1.59, 7.15, repro,
2008-01-20,-1.86, -2.89, -10.41, 1.96, 1.60, 7.17, repro,
2008-01-21,-0.84, -3.86, -8.91, 1.98, 1.61, 7.25, repro,
2008-01-22,-2.05, -2.97, -12.27, 1.95, 1.59, 7.13, repro,
2008-01-23,-1.84, -2.59, -12.34, 1.97, 1.59, 7.16, repro,
2008-01-24,-0.61, -3.63, 0.74, 1.97, 1.59, 7.17, repro,
2008-01-25,0.54, -3.15, -9.76, 1.97, 1.60, 7.18, repro,
2008-01-26,-0.61, -2.46, -4.11, 1.96, 1.61, 7.19, repro,
2008-01-27,-3.91, -2.88, -6.52, 1.97, 1.61, 7.24, repro,
2008-01-28,-3.10, -5.35, -5.07, 2.01, 1.61, 7.25, repro,
2008-01-29,-3.09, -2.14, -10.21, 2.06, 1.71, 7.48, repro,
2008-01-30,-2.14, -1.60, -11.38, 2.07, 1.67, 7.49, repro,
2008-01-31,-1.16, -3.62, -15.09, 1.97, 1.60, 7.20, repro,
2008-02-01,-3.58, -5.00, -18.04, 1.97, 1.61, 7.26, repro,
2008-02-02,-1.64, -1.39, -14.25, 1.95, 1.60, 7.16, repro,
2008-02-03,-2.82, -3.15, -15.57, 1.97, 1.59, 7.16, repro,
2008-02-04,-1.24, -2.42, -13.42, 1.96, 1.59, 7.13, repro,
2008-02-05,-1.63, -2.11, -12.17, 2.00, 1.68, 7.33, repro,
2008-02-06,-1.83, -2.21, -11.90, 2.00, 1.66, 7.34, repro,
2008-02-07,-1.53, -2.37, -13.14, 1.99, 1.64, 7.41, repro,
2008-02-08,-2.37, -2.85, -11.93, 1.95, 1.59, 7.13, repro,
2008-02-09,-2.59, -2.78, -12.78, 1.97, 1.59, 7.14, repro,
2008-02-10,-2.22, -1.67, -11.00, 1.97, 1.60, 7.19, repro,
2008-02-11,-2.80, -2.20, -10.00, 1.96, 1.60, 7.15, repro,
2008-02-12,-2.29, -2.33, -12.41, 1.97, 1.61, 7.24, repro,
2008-02-13,-3.63, -3.96, -8.37, 1.95, 1.59, 7.11, repro,
2008-02-14,-3.01, -2.03, -8.06, 1.97, 1.59, 7.20, repro,
2008-02-15,-1.81, -2.93, -12.65, 2.00, 1.65, 7.31, repro,
2008-02-16,-2.54, -2.33, -7.28, 1.97, 1.60, 7.17, repro,
2008-02-17,-2.98, -2.30, -9.20, 1.97, 1.60, 7.20, repro,
2008-02-18,-2.58, -3.23, -9.98, 1.97, 1.60, 7.20, repro,
2008-02-19,-3.34, -2.91, -10.25, 1.97, 1.60, 7.22, repro,
2008-02-20,-2.70, -3.46, -9.54, 1.96, 1.60, 7.17, repro,
2008-02-21,-2.91, -3.22, -2.65, 1.97, 1.60, 7.19, repro,
2008-02-22,-2.58, -3.90, -10.41, 1.98, 1.61, 7.19, repro,
2008-02-23,-3.26, -3.08, -14.58, 1.96, 1.61, 7.18, repro,
2008-02-24,-4.71, -4.50, -12.01, 1.95, 1.59, 7.14, repro,
2008-02-25,-2.82, -3.05, -14.13, 1.98, 1.61, 7.25, repro,
2008-02-26,-1.81, -3.21, -18.21, 1.99, 1.60, 7.25, repro,
2008-02-27,-3.14, -3.44, -16.18, 2.00, 1.64, 7.35, repro,
2008-02-28,-2.30, -4.00, -13.67, 2.04, 1.70, 7.59, repro,
2008-02-29,-2.77, -3.90, -15.42, 2.00, 1.65, 7.38, repro,
2008-03-01,-4.28, -4.59, -7.62, 1.97, 1.58, 7.15, repro,
2008-03-02,-3.20, -4.02, -15.83, 2.04, 1.67, 7.59, repro,
2008-03-03,-2.86, -3.99, -14.39, 2.01, 1.65, 7.51, repro,
2008-03-04,-2.78, -2.85, -11.99, 1.97, 1.59, 7.18, repro,
2008-03-05,-2.79, -3.01, -12.25, 2.04, 1.71, 7.57, repro,
2008-03-06,-2.24, -3.64, -15.31, 1.98, 1.63, 7.35, repro,
2008-03-07,-2.27, -4.02, -15.40, 1.97, 1.59, 7.18, repro,
2008-03-08,-2.75, -3.43, -10.89, 2.01, 1.63, 7.46, repro,
2008-03-09,-2.41, -4.34, -13.66, 2.00, 1.64, 7.45, repro,
2008-03-10,-2.73, -3.83, -13.50, 1.97, 1.60, 7.21, repro,
2008-03-11,-1.69, -3.38, -11.86, 1.97, 1.59, 7.17, repro,
2008-03-12,-2.45, -4.49, -13.17, 2.00, 1.63, 7.35, repro,
2008-03-13,-2.79, -4.13, -15.18, 2.00, 1.63, 7.40, repro,
2008-03-14,-4.06, -5.84, -7.10, 2.01, 1.63, 7.41, repro,
2008-03-15,-1.77, -5.05, -8.45, 1.98, 1.64, 7.34, repro,
2008-03-16,-3.20, -4.64, -11.06, 2.04, 1.69, 7.65, repro,
2008-03-17,-2.36, -4.51, -13.58, 2.10, 1.76, 7.91, repro,
2008-03-18,-2.15, -3.96, -12.16, 2.05, 1.71, 7.62, repro,
2008-03-19,-2.13, -4.74, -11.36, 2.01, 1.63, 7.37, repro,
2008-03-20,-2.59, -5.27, -14.63, 2.00, 1.64, 7.32, repro,
2008-03-21,-1.86, -4.00, -11.93, 2.00, 1.63, 7.31, repro,
2008-03-22,-1.91, -4.30, -18.49, 2.05, 1.67, 7.58, repro,
2008-03-23,-2.53, -4.30, -16.99, 2.00, 1.63, 7.33, repro,
2008-03-24,-1.21, -3.90, -15.91, 2.03, 1.66, 7.45, repro,
2008-03-25,-2.17, -4.49, -11.44, 2.03, 1.67, 7.42, repro,
2008-03-26,-6.32, -6.97, -11.87, 2.03, 1.66, 7.39, repro,
2008-03-27,-2.37, -5.98, -13.21, 2.05, 1.68, 7.50, repro,
2008-03-28,-3.19, -7.02, -11.14, 2.02, 1.63, 7.31, repro,
2008-03-29,-1.81, -4.26, -9.36, 1.99, 1.61, 7.29, repro,
2008-03-30,-2.34, -5.26, -10.22, 1.98, 1.58, 7.16, repro,
2008-03-31,-0.82, -4.16, -11.47, 1.98, 1.59, 7.18, repro,
2008-04-01,-1.87, -3.25, -10.20, 2.03, 1.64, 7.48, repro,
2008-04-02,-2.63, -4.43, -10.05, 2.08, 1.62, 7.47, repro,
2008-04-03,-2.85, -5.19, -11.87, 1.98, 1.59, 7.23, repro,
2008-04-04,-3.61, -4.53, -12.05, 1.98, 1.59, 7.23, repro,
2008-04-05,-0.83, -3.72, -7.23, 1.98, 1.59, 7.21, repro,
2008-04-06,-2.27, -6.34, -12.60, 1.99, 1.58, 7.20, repro,
2008-04-07,-1.91, -6.00, -5.04, 2.01, 1.60, 7.26, repro,
2008-04-08,-2.47, -4.59, -8.85, 2.00, 1.60, 7.28, repro,
2008-04-09,-2.29, -4.86, -6.58, 1.99, 1.60, 7.28, repro,
2008-04-10,-2.07, -3.66, -13.23, 1.98, 1.59, 7.20, repro,
2008-04-11,-2.67, -3.81, -11.09, 1.98, 1.60, 7.23, repro,
2008-04-12,-1.50, -4.51, -16.88, 2.01, 1.60, 7.28, repro,
2008-04-13,-2.30, -4.36, -14.72, 2.04, 1.63, 7.37, repro,
2008-04-14,-2.40, -6.03, -12.43, 1.99, 1.59, 7.23, repro,
2008-04-15,-3.61, -8.44, -10.08, 2.02, 1.64, 7.38, repro,
2008-04-16,-2.42, -5.23, -9.41, 2.01, 1.64, 7.37, repro,
2008-04-17,-2.33, -4.58, -9.37, 2.00, 1.60, 7.27, repro,
2008-04-18,-3.23, -4.54, -8.81, 2.02, 1.60, 7.28, repro,
2008-04-19,-4.01, -4.71, -5.64, 2.00, 1.58, 7.23, repro,
2008-04-20,-3.28, -6.02, -9.58, 1.98, 1.59, 7.24, repro,
2008-04-21,-2.09, -5.05, -8.16, 1.99, 1.60, 7.28, repro,
2008-04-22,-3.72, -5.41, -7.69, 2.00, 1.60, 7.28, repro,
2008-04-23,-2.48, -2.53, -15.04, 2.07, 1.66, 7.52, repro,
2008-04-24,-2.37, -4.79, -12.23, 2.04, 1.62, 7.37, repro,
2008-04-25,-2.53, -5.15, -16.87, 2.00, 1.58, 7.23, repro,
2008-04-26,-3.21, -4.34, -14.15, 2.09, 1.62, 7.54, repro,
2008-04-27,-2.89, -4.60, -12.62, 2.10, 1.62, 7.53, repro,
2008-04-28,-2.48, -3.61, -15.15, 2.11, 1.62, 7.52, repro,
2008-04-29,-4.44, -5.36, -8.22, 2.15, 1.62, 7.52, repro,
2008-04-30,-2.84, -5.80, -9.93, 2.11, 1.66, 7.57, repro,
2008-05-01,-1.91, -4.40, -11.06, 2.09, 1.65, 7.53, repro,
2008-05-02,-2.90, -3.10, -6.98, 2.10, 1.66, 7.58, repro,
2008-05-03,-2.95, -3.56, -5.81, 2.05, 1.62, 7.41, repro,
2008-05-04,-3.16, -4.55, -8.74, 2.02, 1.58, 7.24, repro,
2008-05-05,-3.36, -5.66, -10.57, 2.07, 1.63, 7.43, repro,
2008-05-06,-3.61, -4.35, -13.91, 2.06, 1.62, 7.45, repro,
2008-05-07,-4.33, -4.22, -4.35, 2.05, 1.61, 7.38, repro,
2008-05-08,-2.79, -4.15, -10.01, 2.22, 1.70, 7.89, repro,
2008-05-09,-1.48, -3.53, -8.75, 2.05, 1.61, 7.35, repro,
2008-05-11,-2.72, -3.75, -2.81, 2.05, 1.62, 7.39, repro,
2008-05-12,-2.16, -5.15, -4.12, 2.08, 1.62, 7.51, repro,
2008-05-13,-3.60, -4.46, -9.06, 2.05, 1.60, 7.40, repro,
2008-05-14,-2.80, -3.37, -12.30, 2.03, 1.59, 7.28, repro,
2008-05-15,-2.08, -3.18, -13.61, 2.04, 1.56, 7.19, repro,
2008-05-16,-2.59, -3.09, -17.01, 2.03, 1.57, 7.21, repro,
2008-05-17,-1.96, -4.66, -13.58, 2.05, 1.60, 7.30, repro,
2008-05-18,-3.05, -4.60, -9.51, 2.07, 1.60, 7.38, repro,
2008-05-19,-1.59, -3.07, -10.77, 2.05, 1.60, 7.47, repro,
2008-05-20,-4.48, -4.97, -6.67, 2.07, 1.66, 7.47, repro,
2008-05-21,-1.69, -4.25, -12.20, 2.03, 1.59, 7.30, repro,
2008-05-22,-3.59, -3.37, -3.94, 2.06, 1.65, 7.51, repro,
2008-05-23,-2.33, -3.64, -3.85, 2.04, 1.62, 7.39, repro,
2008-05-24,-2.91, -3.88, -6.88, 2.04, 1.62, 7.41, repro,
2008-05-25,-3.29, -3.56, -8.53, 2.04, 1.61, 7.39, repro,
2008-05-26,-3.59, -3.18, -7.03, 2.05, 1.63, 7.47, repro,
2008-05-27,-2.52, -3.80, -12.34, 2.03, 1.59, 7.37, repro,
2008-05-28,-3.39, -3.85, -10.99, 2.06, 1.64, 7.49, repro,
2008-05-29,-2.97, -2.24, -7.89, 2.09, 1.69, 7.56, repro,
2008-05-30,-0.85, -1.96, -14.77, 2.02, 1.59, 7.31, repro,
2008-05-31,-1.12, -3.27, -10.40, 2.01, 1.60, 7.33, repro,
2008-06-01,-3.15, -4.43, -7.78, 2.02, 1.60, 7.36, repro,
2008-06-02,-1.77, -3.63, -8.65, 2.00, 1.60, 7.28, repro,
2008-06-03,-0.95, -1.13, -4.12, 2.08, 1.65, 7.56, repro,
2008-06-04,-2.01, -1.70, 1.82, 2.00, 1.56, 7.20, repro,
2008-06-05,-1.65, -3.20, -6.35, 2.01, 1.58, 7.28, repro,
2008-06-06,-0.33, -1.05, -11.55, 2.04, 1.62, 7.40, repro,
2008-06-07,-0.70, -4.21, -5.85, 2.07, 1.68, 7.54, repro,
2008-06-08,-0.59, -3.16, -8.31, 2.04, 1.61, 7.28, repro,
2008-06-09,-1.59, -1.98, -5.80, 2.05, 1.61, 7.36, repro,
2008-06-10,-0.31, -2.82, -10.81, 2.01, 1.57, 7.24, repro,
2008-06-11,-1.96, -3.81, -9.33, 2.02, 1.57, 7.27, repro,
2008-06-12,-2.45, -1.60, -6.21, 2.03, 1.61, 7.36, repro,
2008-06-13,-2.21, -0.97, -8.88, 2.01, 1.59, 7.24, repro,
2008-06-14,-1.75, -2.42, -7.53, 2.07, 1.60, 7.37, repro,
2008-06-15,-2.16, -3.12, -4.27, 2.07, 1.62, 7.39, repro,
2008-06-16,-0.85, -3.44, -7.42, 2.01, 1.58, 7.24, repro,
2008-06-17,-1.49, -3.04, -10.31, 2.03, 1.59, 7.28, repro,
2008-06-18,-0.78, 0.12, -12.27, 2.00, 1.58, 7.19, repro,
2008-06-19,0.80, -1.04, -14.25, 2.02, 1.63, 7.32, repro,
2008-06-20,-1.22, -2.39, -10.10, 2.02, 1.57, 7.24, repro,
2008-06-21,-0.46, -3.00, -10.24, 2.01, 1.58, 7.27, repro,
2008-06-22,-1.62, -1.32, -5.20, 2.02, 1.57, 7.23, repro,
2008-06-23,-1.31, -0.81, -5.34, 2.01, 1.57, 7.19, repro,
2008-06-24,-1.96, -1.52, -7.35, 2.05, 1.63, 7.34, repro,
2008-06-25,-1.95, -1.25, -4.59, 2.01, 1.57, 7.22, repro,
2008-06-26,-0.87, -1.47, -4.97, 2.07, 1.70, 7.52, repro,
2008-06-27,-1.90, -2.59, -6.85, 2.05, 1.62, 7.32, repro,
2008-06-28,-0.95, -2.85, -12.55, 2.06, 1.63, 7.35, repro,
2008-06-29,-1.68, 0.66, -7.56, 2.05, 1.63, 7.33, repro,
2008-06-30,-2.31, 0.28, -12.99, 2.00, 1.56, 7.18, repro,
2008-07-01,-1.18, -2.35, -8.87, 2.01, 1.57, 7.22, repro,
2008-07-02,-1.00, -1.41, -7.77, 2.02, 1.57, 7.21, repro,
2008-07-03,-0.99, -1.51, -6.30, 2.00, 1.56, 7.16, repro,
2008-07-04,-0.82, -1.07, -4.18, 2.02, 1.57, 7.24, repro,
2008-07-05,-1.24, 0.19, -4.48, 2.00, 1.56, 7.16, repro,
2008-07-06,-0.85, -1.14, -7.50, 2.02, 1.58, 7.26, repro,
2008-07-07,-0.48, -1.51, -5.76, 2.05, 1.64, 7.38, repro,
2008-07-08,-1.55, -1.18, -4.55, 2.01, 1.56, 7.20, repro,
2008-07-09,-0.58, -0.48, -4.19, 2.07, 1.63, 7.41, repro,
2008-07-10,-0.73, -1.76, -4.85, 2.09, 1.60, 7.42, repro,
2008-07-11,-0.61, -1.36, -6.52, 2.14, 1.69, 7.58, repro,
2008-07-12,-0.55, -2.33, -8.28, 2.01, 1.57, 7.21, repro,
2008-07-13,-0.01, -2.03, -8.12, 2.05, 1.63, 7.34, repro,
2008-07-14,-1.73, -2.12, -3.84, 2.05, 1.63, 7.36, repro,
2008-07-15,-0.92, -2.78, -8.01, 2.03, 1.58, 7.27, repro,
2008-07-16,0.15, -0.94, -7.87, 2.02, 1.58, 7.28, repro,
2008-07-17,0.13, -1.93, -7.49, 2.01, 1.57, 7.20, repro,
2008-07-18,-0.32, -0.38, -1.07, 2.15, 1.61, 7.64, repro,
2008-07-19,-1.35, -1.39, 0.70, 2.08, 1.58, 7.46, repro,
2008-07-20,-0.93, -1.45, -2.25, 2.02, 1.58, 7.25, repro,
2008-07-21,-0.58, -1.53, 2.46, 2.04, 1.58, 7.27, repro,
2008-07-22,-0.32, -0.41, -4.79, 2.01, 1.57, 7.19, repro,
2008-07-23,-1.02, -0.12, -2.79, 2.04, 1.58, 7.28, repro,
2008-07-24,-1.11, -0.13, 0.80, 2.01, 1.57, 7.21, repro,
2008-07-25,0.77, -1.42, -0.15, 2.00, 1.56, 7.19, repro,
2008-07-26,-0.43, -0.64, -1.56, 2.01, 1.56, 7.21, repro,
2008-07-27,-0.33, -0.86, -1.59, 2.02, 1.57, 7.23, repro,
2008-07-28,0.13, -1.57, 9.95, 2.08, 1.59, 7.39, repro,
2008-07-29,0.30, -3.20, 10.77, 2.06, 1.59, 7.48, repro,
2008-07-30,-0.16, -0.87, 7.37, 2.07, 1.57, 7.42, repro,
2008-07-31,-1.64, -1.68, 3.76, 2.00, 1.56, 7.17, repro,
2008-08-01,-1.06, -0.36, 0.57, 2.01, 1.56, 7.18, repro,
2008-08-02,0.39, 0.19, 2.09, 2.00, 1.56, 7.15, repro,
2008-08-03,-0.67, -3.04, -1.27, 2.05, 1.60, 7.31, repro,
2008-08-04,0.34, -0.24, -1.27, 2.00, 1.56, 7.20, repro,
2008-08-05,-0.92, -1.13, 0.28, 1.99, 1.55, 7.13, repro,
2008-08-06,0.01, -0.32, 1.82, 2.06, 1.57, 7.30, repro,
2008-08-07,-0.58, -1.05, 2.02, 2.12, 1.63, 7.48, repro,
2008-08-08,-0.39, -2.47, -0.31, 2.11, 1.64, 7.46, repro,
2008-08-09,-0.80, -1.00, -1.08, 2.06, 1.58, 7.33, repro,
2008-08-10,-0.22, -2.29, -3.44, 2.04, 1.57, 7.29, repro,
2008-08-11,-1.05, -1.52, -4.48, 2.05, 1.57, 7.32, repro,
2008-08-12,-0.63, -0.84, -1.61, 2.07, 1.58, 7.35, repro,
2008-08-13,-0.67, -1.55, 1.66, 2.07, 1.57, 7.36, repro,
2008-08-14,0.22, -1.24, -1.91, 2.06, 1.58, 7.33, repro,
2008-08-15,0.40, -0.91, 1.45, 2.05, 1.57, 7.34, repro,
2008-08-16,-1.23, -0.93, 2.14, 2.05, 1.57, 7.34, repro,
2008-08-17,-1.00, -1.39, -1.41, 2.14, 1.65, 7.78, repro,
2008-08-18,0.44, -4.60, 4.65, 2.07, 1.58, 7.36, repro,
2008-08-19,-1.02, -1.69, 4.72, 2.07, 1.58, 7.37, repro,
2008-08-20,0.43, -1.63, 3.32, 2.05, 1.58, 7.32, repro,
2008-08-21,-1.08, -1.73, 3.09, 2.04, 1.57, 7.27, repro,
2008-08-22,-0.42, -2.22, 3.41, 2.05, 1.58, 7.36, repro,
2008-08-23,-0.07, -1.63, 0.57, 2.07, 1.58, 7.36, repro,
2008-08-24,-0.00, -2.52, 1.76, 2.08, 1.61, 7.50, repro,
2008-08-25,0.84, -1.76, -0.07, 2.07, 1.61, 7.51, repro,
2008-08-26,0.23, -1.50, 5.51, 2.04, 1.57, 7.27, repro,
2008-08-27,0.49, -2.54, 2.48, 2.07, 1.61, 7.43, repro,
2008-08-28,0.42, -2.28, -2.53, 2.20, 1.68, 7.84, repro,
2008-08-29,0.80, -0.64, -3.70, 2.09, 1.62, 7.50, repro,
2008-08-30,-1.39, -1.14, 3.23, 2.10, 1.62, 7.54, repro,
2008-08-31,-0.11, -0.28, 2.12, 2.08, 1.61, 7.45, repro,
2008-09-01,0.64, -2.14, -1.60, 2.07, 1.61, 7.43, repro,
2008-09-02,-0.83, -1.47, -7.63, 2.07, 1.61, 7.43, repro,
2008-09-03,-0.24, -1.52, 0.32, 2.10, 1.62, 7.51, repro,
2008-09-04,0.12, -1.61, -5.55, 2.17, 1.71, 7.92, repro,
2008-09-05,-0.11, -1.51, -4.95, 2.14, 1.63, 7.57, repro,